Time,TemperatureF,DewpointF,PressureIn,WindDirection,WindDirectionDegrees,WindSpeedMPH,WindSpeedGustMPH,Humidity,HourlyPrecipIn,Conditions,Clouds,dailyrainin,SoftwareType,DateUTC
2013-01-15 00:00:00,68.3,61.5,30.06,SE,139,1.0,2.0,79,0.00,,---,0.00,VWS V14.01,2013-01-15 05:00:00,
2013-01-15 00:01:00,68.3,61.5,30.06,SE,139,1.0,2.0,79,0.00,,---,0.00,VWS V14.01,2013-01-15 05:01:00,
2013-01-15 00:15:00,68.3,61.9,30.06,SE,138,0.0,2.0,80,0.00,,---,0.00,VWS V14.01,2013-01-15 05:15:00,
2013-01-15 00:30:00,68.2,61.8,30.06,SE,143,1.0,3.0,80,0.00,,---,0.00,VWS V14.01,2013-01-15 05:30:00,
2013-01-15 00:45:00,68.2,61.8,30.06,SE,139,1.0,3.0,80,0.00,,---,0.00,VWS V14.01,2013-01-15 05:45:00,
2013-01-15 01:00:00,68.0,61.6,30.05,SE,140,1.0,3.0,80,0.00,,---,0.00,VWS V14.01,2013-01-15 06:00:00,
2013-01-15 01:15:00,67.9,61.5,30.05,SE,132,1.0,4.0,80,0.00,,---,0.00,VWS V14.01,2013-01-15 06:15:00,
2013-01-15 01:30:00,67.5,61.5,30.05,SE,143,2.0,2.0,81,0.00,,---,0.00,VWS V14.01,2013-01-15 06:30:00,
2013-01-15 01:45:00,67.1,61.1,30.06,ESE,113,0.0,3.0,81,0.00,,---,0.00,VWS V14.01,2013-01-15 06:45:00,
2013-01-15 02:00:00,66.8,61.1,30.06,SE,134,1.0,2.0,82,0.00,,---,0.00,VWS V14.01,2013-01-15 07:00:00,
2013-01-15 02:15:00,66.6,61.3,30.06,SSE,148,0.0,2.0,83,0.00,,---,0.00,VWS V14.01,2013-01-15 07:15:00,
2013-01-15 02:30:00,66.4,61.1,30.06,SE,145,0.0,2.0,83,0.00,,---,0.00,VWS V14.01,2013-01-15 07:30:00,
2013-01-15 02:45:00,66.0,60.7,30.05,SE,145,0.0,3.0,83,0.00,,---,0.00,VWS V14.01,2013-01-15 07:45:00,
2013-01-15 03:00:00,65.6,60.6,30.05,SE,139,0.0,2.0,84,0.00,,---,0.00,VWS V14.01,2013-01-15 08:00:00,
2013-01-15 03:15:00,65.4,60.5,30.05,SE,143,1.0,2.0,84,0.00,,---,0.00,VWS V14.01,2013-01-15 08:15:00,
2013-01-15 03:30:00,65.3,60.3,30.05,SE,146,2.0,2.0,84,0.00,,---,0.00,VWS V14.01,2013-01-15 08:30:00,
2013-01-15 03:45:00,65.0,60.4,30.04,SE,136,2.0,2.0,85,0.00,,---,0.00,VWS V14.01,2013-01-15 08:45:00,
2013-01-15 04:00:00,64.7,60.1,30.04,SE,136,0.0,2.0,85,0.00,,---,0.00,VWS V14.01,2013-01-15 09:00:00,
2013-01-15 04:15:00,64.3,59.7,30.04,SE,135,0.0,2.0,85,0.00,,---,0.00,VWS V14.01,2013-01-15 09:15:00,
2013-01-15 04:30:00,63.9,59.6,30.03,SE,143,0.0,2.0,86,0.00,,---,0.00,VWS V14.01,2013-01-15 09:30:00,
2013-01-15 04:45:00,63.6,59.7,30.03,SE,131,1.0,2.0,87,0.00,,---,0.00,VWS V14.01,2013-01-15 09:45:00,
2013-01-15 05:00:00,63.3,59.4,30.02,SE,136,1.0,2.0,87,0.00,,---,0.00,VWS V14.01,2013-01-15 10:00:00,
2013-01-15 05:15:00,62.5,58.9,30.02,SE,133,1.0,2.0,88,0.00,,---,0.00,VWS V14.01,2013-01-15 10:15:00,
2013-01-15 05:30:00,62.0,59.0,30.02,SE,134,1.0,2.0,90,0.00,,---,0.00,VWS V14.01,2013-01-15 10:30:00,
2013-01-15 05:45:00,61.7,58.7,30.02,SE,135,1.0,2.0,90,0.00,,---,0.00,VWS V14.01,2013-01-15 10:45:00,
2013-01-15 06:00:00,61.4,58.8,30.03,SE,134,1.0,2.0,91,0.00,,---,0.00,VWS V14.01,2013-01-15 11:00:00,
2013-01-15 06:15:00,61.1,58.5,30.03,SE,135,1.0,3.0,91,0.00,,---,0.00,VWS V14.01,2013-01-15 11:15:00,
2013-01-15 06:30:00,61.0,58.4,30.03,SE,134,1.0,2.0,91,0.00,,---,0.00,VWS V14.01,2013-01-15 11:30:00,
2013-01-15 06:45:00,60.8,58.5,30.04,SE,135,1.0,2.0,92,0.00,,---,0.00,VWS V14.01,2013-01-15 11:45:00,
2013-01-15 07:00:00,60.4,58.1,30.04,SE,135,0.0,1.0,92,0.00,,---,0.00,VWS V14.01,2013-01-15 12:00:00,
2013-01-15 07:15:00,59.8,57.8,30.05,SE,127,1.0,1.0,93,0.00,,---,0.00,VWS V14.01,2013-01-15 12:15:00,
2013-01-15 07:30:00,59.6,57.6,30.06,SE,134,0.0,1.0,93,0.00,,---,0.00,VWS V14.01,2013-01-15 12:30:00,
2013-01-15 07:45:00,59.4,57.7,30.06,SE,131,1.0,2.0,94,0.00,,---,0.00,VWS V14.01,2013-01-15 12:45:00,
2013-01-15 08:00:00,59.4,58.0,30.06,ESE,117,1.0,2.0,95,0.00,,---,0.00,VWS V14.01,2013-01-15 13:00:00,
2013-01-15 08:15:00,59.3,57.6,30.06,SE,133,0.0,2.0,94,0.00,,---,0.00,VWS V14.01,2013-01-15 13:15:00,
2013-01-15 08:30:00,59.6,58.2,30.07,SE,131,0.0,1.0,95,0.00,,---,0.00,VWS V14.01,2013-01-15 13:30:00,
2013-01-15 08:45:00,59.9,58.2,30.07,SE,132,1.0,1.0,94,0.00,,---,0.00,VWS V14.01,2013-01-15 13:45:00,
2013-01-15 09:00:00,60.2,58.5,30.08,SE,133,0.0,1.0,94,0.00,,---,0.00,VWS V14.01,2013-01-15 14:00:00,
2013-01-15 09:15:00,60.5,58.8,30.08,SE,129,1.0,2.0,94,0.00,,---,0.00,VWS V14.01,2013-01-15 14:15:00,
2013-01-15 09:30:00,61.3,59.3,30.08,SE,146,0.0,1.0,93,0.00,,---,0.00,VWS V14.01,2013-01-15 14:30:00,
2013-01-15 09:45:00,62.4,59.4,30.08,SSE,152,1.0,2.0,90,0.00,,---,0.00,VWS V14.01,2013-01-15 14:45:00,
2013-01-15 10:00:00,63.2,59.6,30.08,SE,138,0.0,2.0,88,0.00,,---,0.00,VWS V14.01,2013-01-15 15:00:00,
2013-01-15 10:15:00,64.3,60.3,30.08,SE,139,1.0,2.0,87,0.00,,---,0.00,VWS V14.01,2013-01-15 15:15:00,
2013-01-15 10:30:00,65.4,60.8,30.08,SW,218,1.0,4.0,85,0.00,,---,0.00,VWS V14.01,2013-01-15 15:30:00,
2013-01-15 10:45:00,66.6,60.9,30.07,SE,142,1.0,3.0,82,0.00,,---,0.00,VWS V14.01,2013-01-15 15:45:00,
2013-01-15 11:00:00,67.5,61.5,30.07,WNW,297,1.0,4.0,81,0.00,,---,0.00,VWS V14.01,2013-01-15 16:00:00,
2013-01-15 11:15:00,68.7,61.6,30.06,South,169,1.0,3.0,78,0.00,,---,0.00,VWS V14.01,2013-01-15 16:15:00,
2013-01-15 11:30:00,69.1,61.2,30.06,West,280,1.0,3.0,76,0.00,,---,0.00,VWS V14.01,2013-01-15 16:30:00,
2013-01-15 11:45:00,69.9,61.2,30.04,SSE,159,3.0,3.0,74,0.00,,---,0.00,VWS V14.01,2013-01-15 16:45:00,
2013-01-15 12:00:00,70.6,61.1,30.03,SE,132,0.0,6.0,72,0.00,,---,0.00,VWS V14.01,2013-01-15 17:00:00,
2013-01-15 12:15:00,71.5,61.2,30.02,SSE,152,1.0,6.0,70,0.00,,---,0.00,VWS V14.01,2013-01-15 17:15:00,
2013-01-15 12:30:00,72.6,61.9,30.02,SE,135,2.0,4.0,69,0.00,,---,0.00,VWS V14.01,2013-01-15 17:30:00,
2013-01-15 12:45:00,73.1,61.1,30.01,SE,145,4.0,7.0,66,0.00,,---,0.00,VWS V14.01,2013-01-15 17:45:00,
2013-01-15 13:00:00,73.8,61.7,30.00,SE,145,3.0,6.0,66,0.00,,---,0.00,VWS V14.01,2013-01-15 18:00:00,
2013-01-15 13:15:00,73.5,61.9,29.99,East,101,3.0,6.0,67,0.00,,---,0.00,VWS V14.01,2013-01-15 18:15:00,
2013-01-15 13:30:00,73.6,61.5,29.99,ESE,117,3.0,5.0,66,0.00,,---,0.00,VWS V14.01,2013-01-15 18:30:00,
2013-01-15 13:45:00,73.6,61.5,29.98,South,170,0.0,6.0,66,0.00,,---,0.00,VWS V14.01,2013-01-15 18:45:00,
2013-01-15 14:00:00,74.4,61.9,29.98,ESE,110,2.0,5.0,65,0.00,,---,0.00,VWS V14.01,2013-01-15 19:00:00,
2013-01-15 14:15:00,74.0,61.1,29.97,ESE,120,2.0,5.0,64,0.00,,---,0.00,VWS V14.01,2013-01-15 19:15:00,
2013-01-15 14:30:00,74.4,61.4,29.97,SE,128,2.0,4.0,64,0.00,,---,0.00,VWS V14.01,2013-01-15 19:30:00,
2013-01-15 14:45:00,74.8,61.4,29.96,SE,139,4.0,5.0,63,0.00,,---,0.00,VWS V14.01,2013-01-15 19:45:00,
2013-01-15 15:00:00,74.8,60.9,29.96,SE,132,3.0,4.0,62,0.00,,---,0.00,VWS V14.01,2013-01-15 20:00:00,
2013-01-15 15:15:00,74.5,61.1,29.96,ESE,120,1.0,6.0,63,0.00,,---,0.00,VWS V14.01,2013-01-15 20:15:00,
2013-01-15 15:30:00,74.5,61.1,29.96,SSE,158,1.0,5.0,63,0.00,,---,0.00,VWS V14.01,2013-01-15 20:30:00,
2013-01-15 15:45:00,74.8,60.9,29.97,SE,142,4.0,6.0,62,0.00,,---,0.00,VWS V14.01,2013-01-15 20:45:00,
2013-01-15 16:00:00,74.3,60.9,29.97,SE,134,2.0,6.0,63,0.00,,---,0.00,VWS V14.01,2013-01-15 21:00:00,
2013-01-15 16:15:00,74.2,61.2,29.97,SE,138,2.0,5.0,64,0.00,,---,0.00,VWS V14.01,2013-01-15 21:15:00,
2013-01-15 16:30:00,73.9,61.0,29.97,SE,138,2.0,4.0,64,0.00,,---,0.00,VWS V14.01,2013-01-15 21:30:00,
2013-01-15 16:45:00,73.9,61.0,29.97,SE,129,2.0,4.0,64,0.00,,---,0.00,VWS V14.01,2013-01-15 21:45:00,
2013-01-15 17:00:00,73.5,61.0,29.97,SE,129,0.0,4.0,65,0.00,,---,0.00,VWS V14.01,2013-01-15 22:00:00,
2013-01-15 17:15:00,72.9,60.9,29.98,SE,142,2.0,3.0,66,0.00,,---,0.00,VWS V14.01,2013-01-15 22:15:00,
2013-01-15 17:30:00,72.3,61.2,29.98,SE,135,1.0,3.0,68,0.00,,---,0.00,VWS V14.01,2013-01-15 22:30:00,
2013-01-15 17:45:00,71.4,60.7,29.98,SE,132,1.0,2.0,69,0.00,,---,0.00,VWS V14.01,2013-01-15 22:45:00,
2013-01-15 18:00:00,70.9,61.0,29.98,SE,140,3.0,3.0,71,0.00,,---,0.00,VWS V14.01,2013-01-15 23:00:00,
2013-01-15 18:15:00,70.4,61.0,29.99,SE,130,1.0,3.0,72,0.00,,---,0.00,VWS V14.01,2013-01-15 23:15:00,
2013-01-15 18:30:00,70.0,60.6,29.99,SE,134,0.0,2.0,72,0.00,,---,0.00,VWS V14.01,2013-01-15 23:30:00,
2013-01-15 18:45:00,69.6,61.0,30.00,SE,135,1.0,2.0,74,0.00,,---,0.00,VWS V14.01,2013-01-15 23:45:00,
2013-01-15 19:00:00,69.0,60.4,29.99,SE,134,1.0,2.0,74,0.00,,---,0.00,VWS V14.01,2013-01-16 00:00:00,
2013-01-15 19:15:00,68.9,60.7,29.98,SE,132,1.0,2.0,75,0.00,,---,0.00,VWS V14.01,2013-01-16 00:15:00,
2013-01-15 19:30:00,68.8,60.6,29.98,SE,136,1.0,2.0,75,0.00,,---,0.00,VWS V14.01,2013-01-16 00:30:00,
2013-01-15 19:45:00,69.1,60.5,29.98,SE,132,1.0,3.0,74,0.00,,---,0.00,VWS V14.01,2013-01-16 00:45:00,
2013-01-15 20:00:00,68.9,60.3,29.97,ESE,117,1.0,3.0,74,0.00,,---,0.00,VWS V14.01,2013-01-16 01:00:00,
2013-01-15 20:15:00,68.7,60.5,29.97,SE,138,1.0,2.0,75,0.00,,---,0.00,VWS V14.01,2013-01-16 01:15:00,
2013-01-15 20:30:00,68.5,60.3,29.96,ESE,120,1.0,2.0,75,0.00,,---,0.00,VWS V14.01,2013-01-16 01:30:00,
2013-01-15 20:45:00,68.1,60.3,29.95,SE,125,1.0,2.0,76,0.00,,---,0.00,VWS V14.01,2013-01-16 01:45:00,
2013-01-15 21:01:00,67.9,60.1,29.95,SE,127,0.0,2.0,76,0.00,,---,0.00,VWS V14.01,2013-01-16 02:01:00,
2013-01-15 21:15:00,67.8,60.3,29.95,ESE,122,0.0,0.0,77,0.00,,---,0.00,VWS V14.01,2013-01-16 02:15:00,
2013-01-15 21:30:00,67.8,60.3,29.95,SE,125,1.0,2.0,77,0.00,,---,0.00,VWS V14.01,2013-01-16 02:30:00,
2013-01-15 21:45:00,67.7,60.2,29.95,SE,128,0.0,2.0,77,0.00,,---,0.00,VWS V14.01,2013-01-16 02:45:00,
2013-01-15 22:00:00,67.6,60.1,29.95,SE,128,1.0,2.0,77,0.00,,---,0.00,VWS V14.01,2013-01-16 03:00:00,
2013-01-15 22:15:00,67.8,60.0,29.94,SE,135,2.0,3.0,76,0.00,,---,0.00,VWS V14.01,2013-01-16 03:15:00,
2013-01-15 22:30:00,68.0,60.2,29.94,SE,135,2.0,3.0,76,0.00,,---,0.00,VWS V14.01,2013-01-16 03:30:00,
2013-01-15 22:45:00,68.3,60.1,29.95,SE,125,1.0,3.0,75,0.00,,---,0.00,VWS V14.01,2013-01-16 03:45:00,
2013-01-15 23:00:00,68.3,60.1,29.94,SE,136,1.0,3.0,75,0.00,,---,0.00,VWS V14.01,2013-01-16 04:00:00,
2013-01-15 23:15:00,68.3,60.1,29.94,SE,129,2.0,3.0,75,0.00,,---,0.00,VWS V14.01,2013-01-16 04:15:00,
2013-01-15 23:30:00,68.3,60.1,29.94,SE,137,3.0,5.0,75,0.00,,---,0.00,VWS V14.01,2013-01-16 04:30:00,
2013-01-15 23:45:00,68.3,60.1,29.94,SE,136,2.0,5.0,75,0.00,,---,0.00,VWS V14.01,2013-01-16 04:45:00,